Showing default

TDRS 13, 42915

Orbit data source: Space-Track

TDRS 13, 42915 is a payload satellite owned by GSFC (US) in GEO that was launched on Fri, 18 Aug 2017 UTC via an ATLAS V 401 launch vehicle from the Air Force Eastern Test Range (AFETR). Payload-class satellites include a variety of spacecraft equipped with specific instruments for various scientific and technological missions. These include communications satellites like Starlink; space stations such as the ISS; scientific satellites like the Hubble; Earth observation satellites from companies like Planet Labs, Umbra, and HawkEye 360; GPS; miniature CubeSats for education and research; and military/defense satellites.

Not visible in the next 10 days
Identifier
42915, 2017-047A
Orbit
GEO
Country
Flag of USUS
Related business
Manufacturer
Boeing/ES
Mission
Operational Civil Communications
Bus & Motor
BSS-601HP, R-4D-11-300
Mass
3,454 kg wet, ~2,000 kg dry
Launch date (UTC)
2017-08-18 (8 years ago)
Launch vehicle
ATLAS V 401
Launch site
Air Force Eastern Test Range (AFETR)
Object type
Payload
Rocket body
Debris
Shape & HBR
Box + 2 Pan, 12.5 m
Radar Cross Section
43.356 m², Large (>1 m²)

Expand to show TLE details & history
Last TLE update: 12 hours ago

TLE from 12 hours ago
0 TDRS 13
1 42915U 17047A   25340.84558556 -.00000095  00000-0  00000-0 0  9995
2 42915   3.4249 357.8000 0009465 126.9265 244.0578  1.00271378 30421
Epoch: 2025-12-06T20:17Z
TLE epoch observation values (Epoch: 2025-12-06T20:17:38.592Z)
Latitude
0.65831°
Longitude
-11.62854°
Altitude
35,803.419 km
Speed
3.073 km/s
True Right ascension
00h 34m 35s
True Declination
0° 39' 28"
Sunlit
Object was in daylight at epoch
Visualization orbit readout
Latitude
Unknown
Longitude
Unknown
Altitude
Unknown
Speed
Unknown
Apparent Right ascension
Unknown
Apparent Declination
Unknown
Sunlit
N/A
Visualization observer readout
Local Sidereal Time
06:39:12
Azimuth
Unknown
Elevation
Unknown
Doppler factor
Unknown
Orbital elements
Apogee altitude
35,827.684 km
Perigee altitude
35,747.864 km
Semi-major axis
42,165.911 km
Eccentricity
0.00095
Inclination
3.4249°
RAAN
357.8°
Arg. of periapsis
126.9265°
True anomaly
243.96032°
Mean anomaly
244.0578°
Eccentric anomaly
244.00905°
Mean motion
0.25067 °/min
Orbital period
1,436.16 mins
BSTAR
0
Loading maneuver chart data...
Computing Atmospheric mass density...
Loading historical data...
Loading historical data...
Loading historical data...
Loading historical data...
Loading historical data...
Loading historical data...
Loading historical data...
Other satellites on launch #47 in the year 2017 (2017-08-18 UTC)

Documentation

Showing up to 5 results
|